SAS2963 EKCH-LIRQ

Flight info

Callsign SAS2963
Flight time N/A
Altitude 37000
Route NEXEN T503 GIMRU DCT MICOS DCT NEBUN DCT EMBOX/N0439F390 DCT EXITI DCT BERAS DCT LIKDA DCT BAKOR DCT GOXIN Q58 BIKTU
Aircraft A20N/M-SDE2E3FGHIRWXY/LB1

Departure

Time N/A
Airport Copenhagen Kastrup Airport (EKCH)

Arrival

Time 2026-04-25 15:29
Airport Florence Airport, Peretola (LIRQ)
Time Latitude Longitude Altitude Speed Heading
2026-04-25 14:17 51.11722 11.37188 37067 ft 447 kts 184°
2026-04-25 14:17 51.05553 11.37330 37068 ft 446 kts 184°
2026-04-25 14:18 50.99321 11.37473 37070 ft 446 kts 184°
2026-04-25 14:18 50.93070 11.37613 37073 ft 451 kts 184°
2026-04-25 14:19 50.86760 11.37754 37074 ft 459 kts 184°
2026-04-25 14:19 50.80336 11.37901 37075 ft 464 kts 184°
2026-04-25 14:20 50.73870 11.38051 37076 ft 469 kts 184°
2026-04-25 14:20 50.67327 11.38201 37078 ft 473 kts 184°
2026-04-25 14:21 50.60754 11.38353 37083 ft 473 kts 184°
2026-04-25 14:21 50.54186 11.38505 37089 ft 472 kts 184°
2026-04-25 14:22 50.47675 11.38654 37096 ft 471 kts 184°
2026-04-25 14:22 50.41112 11.38804 37088 ft 471 kts 184°
2026-04-25 14:23 50.34576 11.38952 37072 ft 470 kts 184°
2026-04-25 14:23 50.28045 11.39099 37064 ft 469 kts 184°
2026-04-25 14:24 50.21529 11.39246 37060 ft 469 kts 184°
2026-04-25 14:24 50.15021 11.39393 37057 ft 468 kts 184°
2026-04-25 14:25 50.09569 11.39515 37054 ft 467 kts 184°
2026-04-25 14:25 50.01996 11.39683 37051 ft 467 kts 184°
2026-04-25 14:26 49.95472 11.39828 37048 ft 467 kts 184°
2026-04-25 14:26 49.89025 11.39972 37048 ft 465 kts 184°
2026-04-25 14:27 49.82527 11.40116 37053 ft 463 kts 184°
2026-04-25 14:27 49.76070 11.40261 37059 ft 463 kts 184°
2026-04-25 14:28 49.69649 11.40405 37061 ft 463 kts 184°
2026-04-25 14:28 49.63206 11.40550 37056 ft 463 kts 184°
2026-04-25 14:29 49.56712 11.40763 37048 ft 465 kts 181°
2026-04-25 14:29 49.50255 11.41717 37046 ft 467 kts 178°
2026-04-25 14:30 49.43819 11.42815 37048 ft 466 kts 178°
2026-04-25 14:30 49.34212 11.44451 37055 ft 466 kts 178°
2026-04-25 14:31 49.27748 11.45550 37063 ft 466 kts 178°
2026-04-25 14:31 49.21336 11.46638 37070 ft 466 kts 178°
2026-04-25 14:32 49.14905 11.47725 37074 ft 465 kts 178°
2026-04-25 14:32 49.08459 11.48813 37075 ft 465 kts 178°
2026-04-25 14:33 49.02029 11.49897 37073 ft 464 kts 178°
2026-04-25 14:33 48.95657 11.50971 37067 ft 464 kts 178°
2026-04-25 14:34 48.89225 11.52050 37064 ft 463 kts 178°
2026-04-25 14:34 48.82820 11.53121 37067 ft 462 kts 178°
2026-04-25 14:35 48.76441 11.54180 37068 ft 462 kts 178°
2026-04-25 14:35 48.70075 11.55236 37067 ft 461 kts 178°
2026-04-25 14:36 48.63693 11.56294 37068 ft 459 kts 178°
2026-04-25 14:36 48.57375 11.57337 37070 ft 459 kts 178°
2026-04-25 14:37 48.51051 11.58379 37074 ft 458 kts 178°
2026-04-25 14:37 48.44690 11.59426 37079 ft 457 kts 178°
2026-04-25 14:38 48.38382 11.60461 37083 ft 457 kts 178°
2026-04-25 14:38 48.32091 11.61491 37085 ft 456 kts 178°
2026-04-25 14:39 48.25785 11.62525 37087 ft 455 kts 178°
2026-04-25 14:39 48.19522 11.63547 37090 ft 455 kts 178°
2026-04-25 14:40 48.13240 11.64569 37094 ft 454 kts 178°
2026-04-25 14:40 48.06953 11.65588 37098 ft 453 kts 179°
2026-04-25 14:41 48.00677 11.66603 37102 ft 452 kts 179°
2026-04-25 14:41 47.94391 11.67620 37106 ft 452 kts 179°
2026-04-25 14:42 47.90210 11.68294 37108 ft 452 kts 179°
2026-04-25 14:42 47.81907 11.69629 37105 ft 450 kts 179°
2026-04-25 14:43 47.75644 11.70633 37100 ft 451 kts 179°
2026-04-25 14:43 47.69400 11.71631 37104 ft 451 kts 179°
2026-04-25 14:44 47.63168 11.72625 37119 ft 451 kts 179°
2026-04-25 14:44 47.56913 11.73621 37056 ft 451 kts 179°
2026-04-25 14:45 47.50658 11.74615 36927 ft 451 kts 179°
2026-04-25 14:45 47.44396 11.75609 36724 ft 452 kts 179°
2026-04-25 14:46 47.41301 11.76098 36567 ft 452 kts 179°
2026-04-25 14:46 47.38187 11.76540 36386 ft 451 kts 181°
2026-04-25 14:46 47.35072 11.76756 36177 ft 449 kts 184°
2026-04-25 14:46 47.31921 11.76725 35925 ft 448 kts 187°
2026-04-25 14:47 47.28825 11.76541 35627 ft 448 kts 187°
2026-04-25 14:47 47.26750 11.76426 35476 ft 448 kts 187°
2026-04-25 14:47 47.22590 11.76202 35299 ft 448 kts 186°
2026-04-25 14:47 47.19476 11.76035 35237 ft 448 kts 186°
2026-04-25 14:48 47.13209 11.75697 35188 ft 448 kts 186°
2026-04-25 14:48 47.06983 11.75361 35163 ft 449 kts 186°
2026-04-25 14:49 47.00730 11.75021 35179 ft 449 kts 186°
2026-04-25 14:49 46.94501 11.74675 35222 ft 449 kts 186°
2026-04-25 14:50 46.88261 11.74332 35465 ft 446 kts 186°
2026-04-25 14:50 46.85182 11.74167 35779 ft 439 kts 186°
2026-04-25 14:50 46.82182 11.74006 36112 ft 433 kts 186°
2026-04-25 14:51 46.79161 11.73844 36488 ft 427 kts 186°
2026-04-25 14:51 46.76221 11.73685 36783 ft 424 kts 187°
2026-04-25 14:51 46.73276 11.73524 36976 ft 425 kts 187°
2026-04-25 14:51 46.70311 11.73361 37089 ft 428 kts 187°
2026-04-25 14:52 46.64371 11.73039 37210 ft 430 kts 186°
2026-04-25 14:52 46.59392 11.72759 37263 ft 429 kts 187°
2026-04-25 14:53 46.52430 11.72242 37222 ft 429 kts 187°
2026-04-25 14:53 46.46506 11.71799 37233 ft 429 kts 187°
2026-04-25 14:54 46.40559 11.71361 37230 ft 429 kts 187°
2026-04-25 14:54 46.34598 11.70927 37215 ft 428 kts 187°
2026-04-25 14:55 46.28685 11.70498 37201 ft 428 kts 187°
2026-04-25 14:55 46.22727 11.70068 37184 ft 428 kts 187°
2026-04-25 14:56 46.16792 11.69640 37130 ft 428 kts 187°
2026-04-25 14:56 46.10876 11.69214 37066 ft 428 kts 187°
2026-04-25 14:57 46.04933 11.68788 36996 ft 428 kts 187°
2026-04-25 14:57 45.99004 11.68363 36932 ft 428 kts 187°
2026-04-25 14:58 45.93055 11.67938 36885 ft 428 kts 187°
2026-04-25 14:58 45.87117 11.67515 36849 ft 428 kts 187°
2026-04-25 14:59 45.81134 11.67089 36810 ft 428 kts 187°
2026-04-25 14:59 45.75182 11.66666 36761 ft 428 kts 187°
2026-04-25 15:00 45.70233 11.66315 36742 ft 428 kts 187°
2026-04-25 15:00 45.63290 11.65825 36758 ft 429 kts 187°
2026-04-25 15:01 45.60298 11.65614 36896 ft 427 kts 187°
2026-04-25 15:01 45.57365 11.65409 37185 ft 422 kts 187°
2026-04-25 15:01 45.54446 11.65206 37550 ft 415 kts 187°
2026-04-25 15:01 45.51589 11.65007 37975 ft 407 kts 187°
2026-04-25 15:02 45.48790 11.64812 38316 ft 405 kts 187°
2026-04-25 15:02 45.45967 11.64611 38457 ft 409 kts 187°
2026-04-25 15:02 45.40184 11.64196 38455 ft 424 kts 187°
2026-04-25 15:03 45.37224 11.63987 38275 ft 427 kts 187°
2026-04-25 15:03 45.34272 11.63780 38022 ft 428 kts 187°
2026-04-25 15:03 45.31279 11.63572 37725 ft 427 kts 187°
2026-04-25 15:03 45.28325 11.63368 37381 ft 427 kts 187°
2026-04-25 15:04 45.25380 11.63162 37038 ft 426 kts 187°
2026-04-25 15:04 45.22457 11.62960 36571 ft 422 kts 187°
2026-04-25 15:04 45.19516 11.62756 36029 ft 420 kts 187°
2026-04-25 15:04 45.16581 11.62551 35426 ft 420 kts 187°
2026-04-25 15:05 45.13670 11.62349 34792 ft 420 kts 186°
2026-04-25 15:05 45.10784 11.62148 34161 ft 420 kts 186°
2026-04-25 15:05 45.07850 11.61944 33512 ft 420 kts 186°
2026-04-25 15:06 45.02006 11.61538 32143 ft 419 kts 186°
2026-04-25 15:06 44.99112 11.61339 31458 ft 419 kts 186°
2026-04-25 15:06 44.96204 11.61139 30768 ft 419 kts 186°
2026-04-25 15:06 44.93275 11.60938 30085 ft 419 kts 186°
2026-04-25 15:07 44.90361 11.60737 29413 ft 420 kts 186°
2026-04-25 15:07 44.87450 11.60538 28857 ft 416 kts 186°
2026-04-25 15:07 44.84600 11.60344 28374 ft 411 kts 186°
2026-04-25 15:07 44.81743 11.60149 27899 ft 406 kts 186°
2026-04-25 15:08 44.78978 11.59961 27446 ft 402 kts 186°
2026-04-25 15:08 44.76195 11.59772 26994 ft 400 kts 186°
2026-04-25 15:08 44.73433 11.59583 26546 ft 398 kts 186°
2026-04-25 15:08 44.70664 11.59394 26107 ft 396 kts 186°
2026-04-25 15:09 44.67940 11.59208 25684 ft 394 kts 186°
2026-04-25 15:09 44.65188 11.59021 25242 ft 391 kts 186°
2026-04-25 15:09 44.59819 11.58656 24328 ft 385 kts 186°
2026-04-25 15:10 44.57182 11.58477 23877 ft 382 kts 186°
2026-04-25 15:10 44.54510 11.58295 23422 ft 379 kts 186°
2026-04-25 15:10 44.49303 11.57943 22535 ft 373 kts 186°
2026-04-25 15:11 44.46728 11.57768 22095 ft 371 kts 186°
2026-04-25 15:11 44.44156 11.57593 21650 ft 368 kts 186°
2026-04-25 15:11 44.41608 11.57420 21202 ft 366 kts 186°
2026-04-25 15:12 44.36559 11.57080 20309 ft 362 kts 185°
2026-04-25 15:12 44.34038 11.56911 19863 ft 360 kts 185°
2026-04-25 15:12 44.31576 11.56746 19429 ft 357 kts 185°
2026-04-25 15:12 44.30747 11.56690 19281 ft 356 kts 185°
2026-04-25 15:13 44.26624 11.56410 18499 ft 354 kts 186°
2026-04-25 15:13 44.21765 11.55959 17653 ft 348 kts 187°
2026-04-25 15:13 44.19368 11.55725 17243 ft 344 kts 187°
2026-04-25 15:14 44.16970 11.55493 16825 ft 342 kts 187°
2026-04-25 15:14 44.14611 11.55267 16404 ft 339 kts 187°
2026-04-25 15:14 44.12290 11.55047 16018 ft 338 kts 187°
2026-04-25 15:14 44.09954 11.54825 15618 ft 337 kts 186°
2026-04-25 15:15 44.07622 11.54605 15212 ft 335 kts 186°
2026-04-25 15:15 44.05321 11.54391 14983 ft 327 kts 186°
2026-04-25 15:15 44.03081 11.54182 14828 ft 314 kts 186°
2026-04-25 15:15 44.00975 11.53844 14679 ft 303 kts 196°
2026-04-25 15:16 43.99003 11.52873 14369 ft 296 kts 209°
2026-04-25 15:16 43.97252 11.51463 13943 ft 294 kts 213°
2026-04-25 15:16 43.93809 11.48465 13185 ft 287 kts 214°
2026-04-25 15:17 43.90470 11.45579 12520 ft 279 kts 213°
2026-04-25 15:17 43.88827 11.44169 12241 ft 277 kts 213°
2026-04-25 15:17 43.87185 11.42764 11934 ft 275 kts 213°
2026-04-25 15:18 43.85570 11.41385 11613 ft 275 kts 213°
2026-04-25 15:18 43.82325 11.38619 10936 ft 276 kts 213°
2026-04-25 15:18 43.80652 11.37195 10406 ft 282 kts 213°
2026-04-25 15:19 43.78970 11.35762 9872 ft 288 kts 213°
2026-04-25 15:19 43.78417 11.35291 9698 ft 289 kts 213°
2026-04-25 15:19 43.75618 11.32685 8938 ft 290 kts 221°
2026-04-25 15:19 43.74189 11.30770 8628 ft 285 kts 227°
2026-04-25 15:20 43.72874 11.28753 8324 ft 280 kts 229°
2026-04-25 15:20 43.71584 11.26733 8007 ft 276 kts 229°
2026-04-25 15:20 43.70328 11.24769 7648 ft 274 kts 229°
2026-04-25 15:20 43.69067 11.22809 7205 ft 271 kts 228°
2026-04-25 15:21 43.67828 11.20894 6741 ft 263 kts 228°
2026-04-25 15:21 43.66618 11.19027 6327 ft 255 kts 228°
2026-04-25 15:21 43.65466 11.17251 6102 ft 241 kts 229°
2026-04-25 15:21 43.64383 11.15580 5984 ft 229 kts 228°
2026-04-25 15:22 43.63329 11.13966 5700 ft 223 kts 229°
2026-04-25 15:22 43.62312 11.12412 5451 ft 214 kts 229°
2026-04-25 15:22 43.61331 11.10914 5088 ft 211 kts 229°
2026-04-25 15:22 43.60375 11.09406 4683 ft 210 kts 237°
2026-04-25 15:23 43.59906 11.07549 4232 ft 209 kts 271°
2026-04-25 15:23 43.60267 11.05639 3812 ft 208 kts 302°
2026-04-25 15:23 43.61239 11.04203 3489 ft 202 kts 319°
2026-04-25 15:23 43.62281 11.02969 3304 ft 194 kts 318°
2026-04-25 15:24 43.63294 11.01745 3067 ft 193 kts 317°
2026-04-25 15:24 43.64307 11.00508 3031 ft 195 kts 317°
2026-04-25 15:24 43.65408 10.99434 3015 ft 197 kts 342°
2026-04-25 15:24 43.65850 10.99284 3014 ft 197 kts 355°
2026-04-25 15:25 43.67869 11.00355 3015 ft 191 kts 41°
2026-04-25 15:25 43.68809 11.01627 3009 ft 191 kts 46°
2026-04-25 15:25 43.69703 11.02984 3005 ft 191 kts 48°
2026-04-25 15:25 43.70563 11.04330 3022 ft 179 kts 48°
2026-04-25 15:26 43.71373 11.05598 2788 ft 175 kts 48°
2026-04-25 15:26 43.72170 11.06841 2554 ft 170 kts 47°
2026-04-25 15:26 43.72941 11.08035 2329 ft 164 kts 47°
2026-04-25 15:26 43.73675 11.09172 2108 ft 157 kts 47°
2026-04-25 15:27 43.74406 11.10303 1947 ft 158 kts 47°
2026-04-25 15:27 43.75111 11.11394 1720 ft 146 kts 47°
2026-04-25 15:27 43.76418 11.13429 1345 ft 141 kts 47°
2026-04-25 15:28 43.77063 11.14465 1198 ft 143 kts 47°
2026-04-25 15:28 43.77742 11.15486 1041 ft 144 kts 46°
2026-04-25 15:28 43.78415 11.16516 855 ft 145 kts 46°
2026-04-25 15:28 43.79092 11.17558 625 ft 146 kts 46°
2026-04-25 15:29 43.79767 11.18599 422 ft 146 kts 45°
2026-04-25 15:29 43.80445 11.19638 218 ft 145 kts 46°
2026-04-25 15:29 43.81086 11.20633 149 ft 120 kts 48°
2026-04-25 15:29 43.81408 11.21129 153 ft 28 kts 48°
2026-04-25 15:30 43.81448 11.21191 154 ft 26 kts 48°
2026-04-25 15:30 43.81432 11.21369 155 ft 14 kts 164°
2026-04-25 15:30 43.81339 11.21342 155 ft 15 kts 227°
2026-04-25 15:30 43.81269 11.21228 155 ft 15 kts 239°
2026-04-25 15:31 43.81262 11.21083 155 ft 15 kts 273°
2026-04-25 15:31 43.81266 11.20938 154 ft 15 kts 262°
2026-04-25 15:31 43.81202 11.20811 153 ft 17 kts 229°
2026-04-25 15:31 43.81115 11.20677 152 ft 19 kts 227°
2026-04-25 15:32 43.81017 11.20527 149 ft 23 kts 227°
2026-04-25 15:32 43.80907 11.20358 148 ft 23 kts 228°
2026-04-25 15:32 43.80802 11.20191 148 ft 22 kts 228°
2026-04-25 15:33 43.80550 11.19990 147 ft 21 kts 195°
2026-04-25 15:33 43.80456 11.19957 148 ft 5 kts 191°
2026-04-25 15:33 43.80444 11.19954 148 ft 0 kts 191°
2026-04-25 15:33 43.80417 11.19942 148 ft 7 kts 208°
2026-04-25 15:34 43.80368 11.19950 149 ft 8 kts 134°
2026-04-25 15:34 43.80369 11.20024 149 ft 8 kts 36°
2026-04-25 15:34 43.80385 11.20077 147 ft 7 kts 95°
2026-04-25 15:34 43.80384 11.20092 147 ft 0 kts 94°
2026-04-25 15:35 43.80384 11.20098 147 ft 0 kts 94°